DECAYED
Showing default

E-STAR-2, 41459 (Decayed)

Orbit data source: Space-Track

E-STAR-2, 41459 was a payload satellite owned by PolyTorino (IT) in LEO that was launched on Mon, 25 Apr 2016 UTC via a SOYUZ-ST-A launch vehicle from the French Guiana (FRGUI). Payloads include a variety of satellites, spacecraft, and rockets equipped with specific instruments for various scientific and technological missions. These include communications satellites like Starlink; space stations such as the ISS; scientific satellites like the Hubble; Earth observation satellites from companies like Planet Labs, Umbra, and HawkEye 360; GPS; miniature CubeSats for education and research; and military/defense satellites.

Not visible in the next 10 days
E-STAR-2 details
Identifier
41459, 2016-025D
Orbit
Decayed
Last TLE update8 months ago
Origin
Flag of ITPolyTorino (IT)
ManufacturerPolyTorino
MissionDecayed Amateur Technology
Bus & MotorCUBESAT 1U, Unknown motor
Mass1 kg wet, 1 kg dry
Launch date (UTC)
2016-04-25 (9 years ago)
Launch vehicle
SOYUZ-ST-A
Launch site
French Guiana (FRGUI)
Object type
Payload
Rocket body
Debris
Shape & HBRBox, 0.1 m
Radar Cross Section0.015 m², Small (<0.1 m²)

Expand to show TLE details & history

TLE from 8 months ago
0 E-STAR-2
1 41459U 16025D   24126.07714411  .16156611  31653-5  27264-3 0  9991
2 41459  98.0991  14.5477 0007120 232.8921 127.1731 16.47786158442898
Epoch: 2024-05-05T01:51Z
Definitive object data (Epoch: 2024-05-05T01:51:05.251Z)
Latitude0.00008°
Longitude123.34122°
Altitude151.221 km
Speed7.814 km/s
True Right ascension00h 58m 11s
True Declination0° 00' 00"
Sunlit
Object was in daylight at TLE epoch
Visualization observer readout
Observer readout values are unavailable because the object's trajectory could not be propagated. This is usually caused when the trajectory data is faulty or the object's orbit has decayed.
Visualization observer readout
Observer readout values are unavailable because the object's trajectory could not be propagated. This is usually caused when the trajectory data is faulty or the object's orbit has decayed.
Orbital elements
Apogee altitude146.645 km
Perigee altitude137.36 km
Semi-major axis6,520.139 km
Eccentricity0.000712
Inclination98.0991°
RAAN14.5477°
Arg. of periapsis232.8921°
True anomaly127.23808°
Mean anomaly127.1731°
Eccentric anomaly127.20559°
Mean motion4.12247 °/min
BSTAR0.00027264
Orbital period87.33 mins
Loading maneuver chart data...
Loading historical data...
Loading historical data...
Loading historical data...
Loading historical data...
Loading historical data...
Loading historical data...
Loading historical data...

E-STAR-2 Visibility forecast

Observer location: undefined°, undefined

This satellite is decayed
Span
Click to sort rows by Start time (UTC) header in descending order
Start Az.
Max El. time (UTC)
Max El. Az.
Max El.
End time (UTC)
End Az.
|